Aircraft
UPR1037 PT-KAA BE58
KBHM
Birmingham-Shuttlesworth International Airport
KGTR
Golden Triangle Regional Airport
Pilot:: Klebson
Aircraft:: Beechcraft Baron 58
Alternate: KTUP
Network: ivao
FLIGHT DETAILS
Distance: 92nm Duration 00h 22m
Cruise Speed: Flight Level: 8000
Validation: Validated Type Charter
Flight Fuel
ZFW: 1464
Block Fuel/Initial FOB: 186
Flight Fuel: 66
Cargo
Passengers: 7
Cargo: 0
ROUTE
ROUTE: JOEYE
REMARKS:
DATE
Date: 26-08-18
Departure Time: 2042
Cargo: 0
FLIGHT DETAILS
Crashed: No
Validator Comments: Validado por Claudenir
Flight Rating: 100
LANDING ANALYSIS
Landing wind: 271º/1 kt
Landing heading: 182º
Landing VS:: -55 ft/min
Landing IAS:: 99 kt
Landing Force G: 1.1 G
Landing Bank: 1
Landing Pitch: -2
Landing Flaps: 50
Navigation Lights: ON
Landing Lights: ON
Beacon Lights: ON
Strobe Lights: ON
viserfly

ALTITUDE CHART

viserfly

MAIN EVENTS

DATE EVENT IAS ALTITUDE
2026-08-18 20:40:44 FLYacars version 1.3.6 0 670
2026-08-18 20:40:45 Aircraft boarding in progress 0 670
2026-08-18 20:41:51 Aircraft taxiing to runway 0 670
2026-08-18 20:42:03 Detected Take-off roll, HDG 252, IAS 88kt, GS 94kt, G-force 1.0g, Pitch -4.4deg, Bank -0.3deg, Wind 270/01kt, Temp 15°C 88 671
2026-08-18 20:42:03 Airborne 88 671
2026-08-18 20:42:06 Gear UP, IAS 101kt, GS 104kt, ALT 57ft AGL 101 724
2026-08-18 20:44:36 Aircraft on Top Of Climb at 9994ft, IAS 130kt, GS 152kt, HDG 282deg, TAT -3deg, WIND 270/2kt 130 9994
2026-08-18 21:01:09 Gear DOWN, IAS 175kt, GS 197kt, ALT 9211ft AGL 175 9388
2026-08-18 21:01:15 FLAPS 50% 175kt, ALT 8906ft 175 8906
2026-08-18 21:01:30 Aircraft on Top Of Descent at 7499ft, IAS 170kt, GS 179kt, HDG 280deg, TAT 0deg, WIND 270/2kt 170 7499
2026-08-18 21:04:04 Landed at destination with a landing rate of -55fpm, G-force 1.1g, Pitch -2.2deg, Bank 0.9deg, HDG 182deg, IAS 99kt, GS 103kt, Wind 271/01kt, Temp 14°C 99 263
2026-08-18 21:04:19 Aircraft taxiing to apron 16 262
2026-08-18 21:04:31 Aircraft at gate/stand, ground services are moving into position, disembarkation has begun. Remaining FOB 120kg FLYacars v1.3.6 0 262
viserfly

ACARS DATA

DATE IAS GS ALTITUDE FUEL CONSUMED OAT FLIGHT STATUS
2026-08-18 20:41:14 0 0 670 0 14 BOARDING
2026-08-18 20:41:44 0 0 670 0 14 BOARDING
2026-08-18 20:42:14 99 100 1165 1 14 TAKEOFF
2026-08-18 20:42:44 146 150 2501 3 11 INITIAL CLIMB
2026-08-18 20:43:14 142 151 4800 5 6 CLIMB
2026-08-18 20:43:44 134 148 6860 7 2 CLIMB
2026-08-18 20:44:14 127 145 8799 8 -1 CLIMB
2026-08-18 20:44:44 150 173 10012 10 -3 ENROUTE
2026-08-18 20:45:14 171 197 10010 12 -3 ENROUTE
2026-08-18 20:45:44 174 200 10007 14 -4 ENROUTE
2026-08-18 20:46:14 174 199 10002 15 -4 ENROUTE
2026-08-18 20:46:44 174 199 10002 17 -3 ENROUTE
2026-08-18 20:47:14 174 199 10002 19 -3 ENROUTE
2026-08-18 20:47:44 174 199 10002 20 -3 ENROUTE
2026-08-18 20:48:14 174 199 10002 22 -3 ENROUTE
2026-08-18 20:48:44 175 200 10003 24 -3 ENROUTE
2026-08-18 20:49:14 176 202 10001 25 -3 ENROUTE
2026-08-18 20:49:44 176 202 10002 27 -4 ENROUTE
2026-08-18 20:50:14 175 200 10000 29 -3 ENROUTE
2026-08-18 20:50:44 174 200 9999 30 -4 ENROUTE
2026-08-18 20:51:14 175 201 10003 32 -3 ENROUTE
2026-08-18 20:51:44 175 201 10006 34 -4 ENROUTE
2026-08-18 20:52:14 174 200 9999 35 -4 ENROUTE
2026-08-18 20:52:44 174 200 10000 37 -4 ENROUTE
2026-08-18 20:53:14 173 199 9999 39 -4 ENROUTE
2026-08-18 20:53:44 175 200 10000 40 -4 ENROUTE
2026-08-18 20:54:14 174 200 9999 42 -4 ENROUTE
2026-08-18 20:54:44 175 201 10002 44 -4 ENROUTE
2026-08-18 20:55:14 175 200 10003 45 -4 ENROUTE
2026-08-18 20:55:44 175 201 10005 47 -4 ENROUTE
2026-08-18 20:56:14 175 200 10002 49 -4 ENROUTE
2026-08-18 20:56:44 175 200 10004 50 -4 ENROUTE
2026-08-18 20:57:14 174 200 9994 52 -4 ENROUTE
2026-08-18 20:57:44 174 201 9996 54 -4 ENROUTE
2026-08-18 20:58:14 175 203 9988 55 -4 ENROUTE
2026-08-18 20:58:44 174 202 9995 57 -4 ENROUTE
2026-08-18 20:59:14 175 203 10005 59 -4 ENROUTE
2026-08-18 20:59:44 175 203 10007 60 -4 ENROUTE
2026-08-18 21:00:14 175 203 10008 62 -4 ENROUTE
2026-08-18 21:00:44 175 202 10003 64 -4 ENROUTE
2026-08-18 21:01:14 175 190 8987 64 -2 DESCENT
2026-08-18 21:01:44 165 172 6243 64 3 DESCENT
2026-08-18 21:02:14 156 165 3888 64 7 DESCENT
2026-08-18 21:02:44 160 165 2618 65 10 DESCENT
2026-08-18 21:03:14 165 166 1239 65 12 ON FINAL
2026-08-18 21:03:44 149 150 422 66 14 ON FINAL
2026-08-18 21:04:14 46 52 263 66 14 ON FINAL
  • Join our VA!

    It has been 11 years of great learning, friendships, and stories.

  • Sign up now!